TimeCDT,TemperatureF,Dew PointF,Humidity,Sea Level PressureIn,VisibilityMPH,Wind Direction,Wind SpeedMPH,Gust SpeedMPH,PrecipitationIn,Events,Conditions,WindDirDegrees,DateUTC
12:15 AM,45.0,38.8,79,29.83,10.0,SW,5.8,-,N/A,,Clear,220,2013-04-12 05:15:00
12:35 AM,46.0,39.2,77,29.83,10.0,WSW,9.2,-,N/A,,Clear,240,2013-04-12 05:35:00
12:55 AM,46.4,39.4,77,29.84,10.0,WSW,9.2,-,N/A,,Clear,240,2013-04-12 05:55:00
1:15 AM,45.9,39.4,78,29.84,10.0,WSW,8.1,-,N/A,,Clear,250,2013-04-12 06:15:00
1:35 AM,45.0,39.6,81,29.86,10.0,WNW,8.1,-,N/A,,Clear,300,2013-04-12 06:35:00
1:55 AM,44.6,39.6,82,29.87,10.0,WNW,8.1,-,N/A,,Clear,300,2013-04-12 06:55:00
2:15 AM,43.0,39.4,87,29.87,10.0,WNW,6.9,-,N/A,,Clear,300,2013-04-12 07:15:00
2:35 AM,42.1,39.2,90,29.87,10.0,WNW,8.1,-,N/A,,Scattered Clouds,290,2013-04-12 07:35:00
2:55 AM,42.6,39.4,88,29.87,10.0,NW,6.9,-,N/A,,Clear,310,2013-04-12 07:55:00
3:15 AM,42.3,38.8,88,29.88,10.0,NW,4.6,-,N/A,,Clear,320,2013-04-12 08:15:00
3:35 AM,40.8,38.8,93,29.89,10.0,NNW,3.5,-,N/A,,Clear,330,2013-04-12 08:35:00
3:55 AM,40.8,39.0,93,29.90,10.0,NNW,6.9,-,N/A,,Clear,340,2013-04-12 08:55:00
4:15 AM,40.5,38.3,92,29.92,10.0,NNW,4.6,-,N/A,,Clear,330,2013-04-12 09:15:00
4:35 AM,39.6,37.0,91,29.92,10.0,North,9.2,-,N/A,,Clear,350,2013-04-12 09:35:00
4:55 AM,38.5,35.6,89,29.93,10.0,North,10.4,-,N/A,,Clear,360,2013-04-12 09:55:00
5:15 AM,37.6,34.9,90,29.94,10.0,North,8.1,-,N/A,,Clear,350,2013-04-12 10:15:00
5:35 AM,37.4,34.7,90,29.94,10.0,North,9.2,-,N/A,,Clear,350,2013-04-12 10:35:00
5:55 AM,37.4,33.8,87,29.95,10.0,NNW,6.9,-,N/A,,Clear,340,2013-04-12 10:55:00
6:15 AM,35.2,33.6,94,29.95,10.0,North,5.8,-,N/A,,Clear,350,2013-04-12 11:15:00
6:35 AM,35.4,33.1,91,29.96,10.0,Calm,Calm,-,N/A,,Clear,0,2013-04-12 11:35:00
6:55 AM,34.0,33.4,98,29.97,10.0,West,4.6,-,N/A,,Clear,270,2013-04-12 11:55:00
7:15 AM,33.3,33.3,100,29.98,10.0,WNW,4.6,-,N/A,,Clear,290,2013-04-12 12:15:00
7:35 AM,32.9,32.9,100,29.99,10.0,Calm,Calm,-,N/A,,Clear,0,2013-04-12 12:35:00
7:55 AM,33.3,33.3,100,29.99,10.0,Calm,Calm,-,N/A,,Clear,0,2013-04-12 12:55:00
8:15 AM,35.6,35.6,100,29.99,10.0,Calm,Calm,-,N/A,,Clear,0,2013-04-12 13:15:00
8:35 AM,37.2,36.7,98,29.99,10.0,NNW,4.6,-,N/A,,Clear,340,2013-04-12 13:35:00
8:55 AM,40.5,34.7,80,29.99,10.0,North,10.4,-,N/A,,Clear,360,2013-04-12 13:55:00
9:15 AM,41.4,34.5,77,29.99,10.0,NNE,9.2,-,N/A,,Clear,20,2013-04-12 14:15:00
9:35 AM,42.1,34.0,73,30.00,10.0,NNE,9.2,-,N/A,,Clear,20,2013-04-12 14:35:00
9:55 AM,43.2,34.3,71,30.01,10.0,NNE,6.9,-,N/A,,Clear,20,2013-04-12 14:55:00
10:15 AM,45.0,35.2,69,30.01,10.0,NE,10.4,-,N/A,,Scattered Clouds,40,2013-04-12 15:15:00
10:35 AM,44.6,35.2,70,30.03,10.0,NE,6.9,-,N/A,,Scattered Clouds,40,2013-04-12 15:35:00
10:55 AM,45.3,35.4,68,30.04,10.0,NE,5.8,-,N/A,,Scattered Clouds,50,2013-04-12 15:55:00
11:15 AM,45.9,35.6,67,30.04,10.0,NE,5.8,-,N/A,,Mostly Cloudy,40,2013-04-12 16:15:00
11:35 AM,46.2,35.6,66,30.06,10.0,Calm,Calm,-,N/A,,Mostly Cloudy,0,2013-04-12 16:35:00
11:55 AM,46.4,35.8,67,30.06,10.0,Calm,Calm,-,N/A,,Mostly Cloudy,0,2013-04-12 16:55:00
12:35 PM,47.8,37.2,67,30.07,10.0,Calm,Calm,-,N/A,,Overcast,0,2013-04-12 17:35:00
12:55 PM,47.7,37.4,68,30.06,10.0,Calm,Calm,-,N/A,,Overcast,0,2013-04-12 17:55:00
1:15 PM,48.6,37.9,67,30.03,10.0,NE,9.2,-,N/A,,Mostly Cloudy,40,2013-04-12 18:15:00
1:55 PM,50.9,40.3,67,30.02,10.0,ENE,9.2,-,N/A,,Mostly Cloudy,60,2013-04-12 18:55:00
2:15 PM,51.8,39.7,63,30.02,10.0,North,6.9,-,N/A,,Scattered Clouds,360,2013-04-12 19:15:00
2:35 PM,52.0,39.7,63,30.02,10.0,NNE,4.6,-,N/A,,Scattered Clouds,20,2013-04-12 19:35:00
2:55 PM,51.6,40.1,65,30.01,10.0,NNE,10.4,-,N/A,,Overcast,30,2013-04-12 19:55:00
3:15 PM,52.3,40.1,63,30.01,10.0,ENE,6.9,-,N/A,,Overcast,60,2013-04-12 20:15:00
3:35 PM,51.8,40.1,64,30.01,10.0,ENE,6.9,-,N/A,,Mostly Cloudy,70,2013-04-12 20:35:00
3:55 PM,52.0,40.3,64,30.00,10.0,NE,6.9,-,N/A,,Mostly Cloudy,50,2013-04-12 20:55:00
4:15 PM,54.0,41.5,63,29.99,10.0,NNE,4.6,-,N/A,,Scattered Clouds,30,2013-04-12 21:15:00
4:55 PM,54.9,41.4,60,29.97,10.0,NE,6.9,-,N/A,,Scattered Clouds,40,2013-04-12 21:55:00
5:15 PM,55.0,42.1,62,29.97,10.0,NE,9.2,-,N/A,,Scattered Clouds,50,2013-04-12 22:15:00
5:35 PM,54.5,41.9,62,29.96,10.0,NE,9.2,-,N/A,,Clear,40,2013-04-12 22:35:00
5:55 PM,55.8,43.0,62,29.96,10.0,ENE,9.2,-,N/A,,Mostly Cloudy,70,2013-04-12 22:55:00
6:15 PM,54.7,42.1,62,29.96,10.0,East,10.4,-,N/A,,Mostly Cloudy,80,2013-04-12 23:15:00
6:35 PM,54.7,43.3,66,29.96,10.0,ENE,8.1,-,N/A,,Scattered Clouds,70,2013-04-12 23:35:00
6:55 PM,54.5,43.2,66,29.96,10.0,East,9.2,-,N/A,,Clear,90,2013-04-12 23:55:00
7:15 PM,53.8,42.6,66,29.96,10.0,East,8.1,-,N/A,,Clear,80,2013-04-13 00:15:00
7:35 PM,53.6,42.8,67,29.96,10.0,East,8.1,-,N/A,,Scattered Clouds,80,2013-04-13 00:35:00
7:55 PM,52.2,42.6,70,29.96,10.0,East,6.9,-,N/A,,Scattered Clouds,80,2013-04-13 00:55:00
8:15 PM,50.4,43.0,76,29.97,10.0,East,4.6,-,N/A,,Clear,90,2013-04-13 01:15:00
8:35 PM,48.9,43.3,81,29.97,10.0,Calm,Calm,-,N/A,,Clear,0,2013-04-13 01:35:00
8:55 PM,47.3,43.2,86,29.98,10.0,Calm,Calm,-,N/A,,Clear,0,2013-04-13 01:55:00
9:35 PM,44.6,42.3,91,29.98,10.0,NNE,5.8,-,N/A,,Clear,20,2013-04-13 02:35:00
10:15 PM,43.9,42.8,96,29.99,10.0,NE,6.9,-,N/A,,Scattered Clouds,40,2013-04-13 03:15:00
10:35 PM,44.2,41.5,90,29.98,10.0,ENE,6.9,-,N/A,,Clear,60,2013-04-13 03:35:00
10:55 PM,45.1,42.1,89,29.99,10.0,NE,4.6,-,N/A,,Scattered Clouds,50,2013-04-13 03:55:00
11:15 PM,44.6,42.3,91,29.99,10.0,Calm,Calm,-,N/A,,Scattered Clouds,0,2013-04-13 04:15:00
11:35 PM,45.0,42.1,90,29.99,10.0,ENE,5.8,-,N/A,,Scattered Clouds,60,2013-04-13 04:35:00
11:55 PM,45.1,41.4,87,29.99,10.0,ENE,8.1,-,N/A,,Clear,60,2013-04-13 04:55:00